Notices

What's New in latest Release from April 7th, 2021:

- Updated Glossary, including Speed of Maximum Gust, and Total Hourly Precipitation

- Updated national and regional climate services offices contacts and prices information

- Addition of station inventory lists for 1981-2010, 1971-2000, and 1961-1990 Normals.

If you haven't already, please take our survey and provide feedback about our website: https://eccc.sondage-survey.ca/f/LanguageSelection.aspx?s=442ca660-fcf1-47c0-95a9-59707d6fd709

Hourly Data Report for May 16, 2020

TRENTON A
ONTARIO
Current Station Operator: DND

44°07'00.000" N
77°32'00.000" W
86.30 m
6158875
71621
YTR

Download Data

Hourly Data (May 2020)
Hourly Data Report for May 16, 2020
TIME
LST
Temp Definition
°C
Dew Point Definition
°C
Rel Hum Definition
%
Precip. Amount Definition
mm

Wind Dir Definition
10's deg

Wind Spd Definition
km/h
Visibility Definition
km
Stn Press Definition
kPa
Hmdx Definition


Wind Chill Definition


Weather Definition


00:00 9.0 7.8 92   25 5 4.8 100.45     Fog
01:00 9.5 8.0 90   30 8 9.7 100.49     Fog
02:00 8.7 7.8 94   31 8 24.1 100.55     Clear
03:00 9.8 8.2 90   32 11 24.1 100.67     Mainly Clear
04:00 9.7 8.0 89   31 5 24.1 100.80     Mainly Clear
05:00 9.0 7.5 90   34 4 24.1 100.87     Mainly Clear
06:00 10.4 7.3 81   3 15 24.1 100.95     Mainly Clear
07:00 11.4 6.1 70   1 24 24.1 101.02     Mainly Clear
08:00 11.5 6.0 69   4 18 24.1 101.14     Mostly Cloudy
09:00 11.7 6.2 69   3 11 24.1 101.17     Cloudy
10:00 13.1 6.6 65   3 9 24.1 101.22     Cloudy
11:00 13.4 6.3 62   36 8 24.1 101.25     Mostly Cloudy
12:00 14.5 6.7 59   31 8 24.1 101.29     Mostly Cloudy
13:00 14.8 6.4 57   36 11 24.1 101.26     Cloudy
14:00 15.4 6.7 56   33 13 24.1 101.25     Cloudy
15:00 12.9 6.3 64   21 17 24.1 101.24     Mostly Cloudy
16:00 14.1 7.1 63   21 13 24.1 101.24     Mainly Clear
17:00 14.4 6.9 61   23 13 24.1 101.25     Mainly Clear
18:00 13.4 6.4 63   21 13 24.1 101.31     Mainly Clear
19:00 12.1 6.1 67   21 11 24.1 101.34     Mainly Clear
20:00 10.4 5.8 73   22 5 24.1 101.35     Mainly Clear
21:00 9.3 6.0 80     0 24.1 101.38     Mainly Clear
22:00 7.3 4.5 82   36 4 24.1 101.39     Mainly Clear
23:00 6.2 3.8 85     0 24.1 101.40     Mainly Clear

Notes on Data Quality.

Legend

  • E = Estimated
  • M = Missing
  • NA = Not Available*
  • [empty] = Indicates an unobserved value
Date modified: